Total_Precipitation_Accumulation
0.00 0.00 0.00 0.00 0.00 0.00 0.00 0.00 0.01 0.02 0.05 0.07 0.15 0.17 0.15 0.20 0.48 1.08 0.97 1.44 2.56 1.72 1.04 0.90 0.98 0.35 0.27 0.25 0.18 0.10 0.05 0.04 0.04 0.04 0.03 0.04 0.04 0.02 0.04 0.04 0.05 0.11 0.34 0.31 0.12 0.11 0.19 0.12 0.08
0.00 0.00 0.00 0.00 0.00 0.00 0.00 0.02 0.01 0.06 0.20 0.31 0.32 0.34 0.37 0.39 0.31 0.56 0.79 0.71 0.68 0.54 0.63 0.80 1.24 1.03 0.85 0.67 0.28 0.18 0.13 0.08 0.03 0.05 0.09 0.11 0.07 0.09 0.11 0.06 0.07 0.23 0.39 0.40 0.39 0.35 0.24 0.11 0.05
0.00 0.00 0.00 0.00 0.00 0.00 0.00 0.02 0.02 0.06 0.16 0.17 0.15 0.14 0.30 0.48 0.71 0.86 0.76 0.69 0.73 0.58 0.39 0.82 1.25 1.38 0.87 1.03 0.73 0.51 0.47 0.22 0.11 0.16 0.09 0.11 0.16 0.29 0.33 0.26 0.25 0.44 0.52 0.49 0.53 0.49 0.35 0.11 0.01
0.00 0.00 0.00 0.00 0.00 0.00 0.00 0.02 0.04 0.15 0.14 0.09 0.12 0.23 0.57 0.53 0.98 0.75 0.70 0.93 1.13 1.27 1.01 1.68 2.11 1.54 1.07 1.00 1.23 2.12 1.92 1.31 1.01 0.66 0.44 0.32 0.53 0.65 0.58 0.48 0.44 0.50 0.60 0.47 0.43 0.47 0.23 0.02 0.00
0.00 0.00 0.00 0.00 0.00 0.00 0.01 0.06 0.17 0.20 0.22 0.29 0.12 0.43 1.00 0.46 0.41 0.64 1.24 2.31 3.20 2.86 2.39 2.34 3.06 2.34 1.68 1.21 1.45 2.07 3.42 3.92 3.38 2.34 1.40 1.63 1.84 1.49 1.16 0.72 0.56 0.51 0.54 0.56 0.48 0.33 0.21 0.08 0.03
0.00 0.00 0.00 0.00 0.00 0.00 0.01 0.11 0.30 0.40 0.25 0.32 0.12 0.48 1.19 0.39 0.47 0.75 1.84 2.38 4.07 5.89 6.62 4.71 4.83 5.24 4.02 2.65 1.37 1.60 2.19 3.44 3.43 3.54 3.38 3.25 2.61 1.68 1.29 0.79 0.59 0.54 0.52 0.45 0.48 0.32 0.29 0.17 0.27
0.00 0.00 0.00 0.00 0.00 0.01 0.04 0.13 0.21 0.23 0.19 0.33 0.20 0.53 1.17 0.47 0.46 0.97 1.84 4.40 6.09 6.92 10.16 10.57 7.27 6.42 5.67 6.33 4.11 1.79 1.64 1.82 2.19 2.31 2.33 2.63 2.99 2.05 1.53 0.97 0.74 0.73 0.72 0.38 0.34 0.29 0.40 0.58 0.54
0.00 0.00 0.00 0.00 0.01 0.04 0.08 0.21 0.27 0.14 0.28 0.50 0.20 0.36 1.31 0.65 0.44 0.52 0.90 2.27 6.29 7.66 6.75 6.98 5.70 4.95 4.65 4.82 5.36 3.72 2.50 2.16 1.89 1.86 1.82 1.74 2.23 2.13 1.50 1.02 0.77 0.83 0.72 0.50 0.40 0.50 0.63 0.58 0.55
0.00 0.00 0.00 0.00 0.04 0.12 0.13 0.12 0.09 0.04 0.06 0.24 0.35 0.32 0.41 0.31 0.29 0.35 1.08 1.17 2.13 3.73 4.11 3.73 2.64 1.87 2.18 2.33 2.73 3.35 3.29 2.69 2.72 2.92 2.12 1.72 1.57 2.11 1.78 1.37 1.09 1.18 1.05 0.77 0.57 0.66 0.67 0.58 0.52
0.00 0.00 0.00 0.00 0.02 0.28 0.21 0.26 0.23 0.04 0.07 0.42 0.52 0.57 0.45 0.32 0.32 0.38 0.91 1.10 1.91 2.56 2.35 1.70 1.17 0.75 0.74 0.84 0.95 1.47 2.23 2.57 2.27 3.60 2.54 2.23 1.43 1.70 1.63 1.81 1.68 1.77 1.77 0.93 0.96 0.89 0.71 0.64 0.63
0.00 0.00 0.00 0.00 0.00 0.05 0.09 0.01 0.01 0.04 0.10 0.25 0.36 0.32 0.17 0.23 0.25 0.44 0.70 1.08 2.18 2.50 1.69 1.22 1.09 0.93 0.92 0.75 0.82 1.05 1.63 2.35 2.64 2.84 2.67 2.68 1.82 2.10 1.83 2.01 1.61 1.49 2.22 1.42 1.39 1.00 0.78 0.67 0.68
0.00 0.00 0.00 0.00 0.01 0.00 0.00 0.01 0.00 0.06 0.54 0.42 0.08 0.21 0.15 0.22 0.33 0.57 0.72 1.17 2.88 1.44 0.65 0.47 0.74 0.83 1.12 1.06 0.88 1.04 1.43 2.19 2.36 1.98 1.81 2.26 1.74 2.01 1.89 1.74 1.59 1.35 2.09 1.67 1.53 1.09 1.01 1.01 1.00
0.00 0.00 0.00 0.00 0.02 0.02 0.01 0.01 0.02 0.40 0.85 0.25 0.22 0.20 0.16 0.21 0.32 0.36 0.39 1.11 1.59 0.91 0.66 0.50 0.42 0.78 0.94 1.13 1.26 1.30 1.37 1.63 1.99 1.80 1.13 1.76 1.80 1.65 2.15 2.25 2.04 1.57 2.12 1.43 1.05 0.95 0.89 0.91 1.04
0.00 0.00 0.00 0.02 0.01 0.02 0.01 0.02 0.18 0.31 0.29 0.38 0.33 0.23 0.21 0.22 0.25 0.28 0.28 0.34 0.46 0.49 0.57 0.65 0.64 0.74 0.79 0.93 1.02 1.18 1.48 2.00 1.77 1.70 1.20 1.22 1.53 1.95 2.59 2.50 2.28 1.64 1.67 1.66 1.38 0.90 0.88 0.83 1.03
0.00 0.01 0.01 0.04 0.02 0.01 0.02 0.10 0.20 0.47 0.35 0.20 0.27 0.28 0.31 0.31 0.25 0.23 0.22 0.18 0.10 0.12 0.28 0.70 1.19 0.66 0.57 0.65 0.80 0.74 0.84 1.18 1.27 1.40 1.22 1.03 1.18 1.50 2.02 2.21 2.05 1.84 1.75 1.48 1.74 1.52 1.26 1.23 1.33
0.00 0.00 0.02 0.16 0.03 0.01 0.01 0.20 0.34 0.14 0.15 0.41 0.17 0.23 0.29 0.20 0.12 0.10 0.10 0.09 0.07 0.07 0.17 0.76 1.37 1.01 0.64 0.53 0.76 0.74 0.94 1.15 1.37 1.64 1.57 1.15 1.17 1.59 1.89 1.96 2.16 2.43 2.71 2.43 2.16 2.24 1.77 1.40 1.49
0.00 0.00 0.00 0.01 0.01 0.01 0.01 0.02 0.15 0.11 0.10 0.26 0.13 0.16 0.11 0.05 0.01 0.03 0.03 0.02 0.04 0.05 0.19 0.53 0.86 1.10 1.06 1.03 1.14 1.08 1.10 1.33 1.49 1.66 1.90 1.89 2.12 2.37 2.31 2.34 2.70 3.07 3.07 2.80 2.40 1.94 1.81 1.45 1.45
0.00 0.00 0.00 0.02 0.01 0.00 0.00 0.00 0.01 0.11 0.13 0.12 0.11 0.07 0.03 0.01 0.00 0.01 0.03 0.04 0.06 0.09 0.33 0.59 0.76 1.25 1.74 1.20 0.85 1.07 1.39 1.30 1.31 1.34 1.66 1.79 1.72 2.13 2.46 2.55 2.24 2.38 2.58 2.58 2.50 2.48 2.30 1.94 1.73
0.00 0.00 0.00 0.00 0.01 0.00 0.00 0.00 0.00 0.04 0.16 0.08 0.06 0.01 0.03 0.02 0.01 0.03 0.05 0.06 0.08 0.18 0.43 0.65 1.02 1.03 0.77 0.67 0.70 0.93 1.09 1.25 1.37 1.22 1.43 1.88 1.91 2.04 2.62 2.96 3.13 2.61 2.07 2.30 2.42 2.55 2.42 2.24 1.99
0.00 0.01 0.00 0.00 0.00 0.00 0.01 0.00 0.00 0.01 0.07 0.07 0.06 0.03 0.02 0.01 0.00 0.01 0.04 0.10 0.29 0.44 0.45 0.34 0.23 0.33 0.41 0.51 0.66 0.84 0.96 1.22 1.31 1.47 1.40 1.69 1.80 2.11 2.18 2.56 2.88 2.76 2.24 1.83 1.70 2.11 2.72 2.95 2.74
0.00 0.00 0.00 0.00 0.00 0.01 0.03 0.01 0.00 0.00 0.05 0.04 0.02 0.04 0.02 0.01 0.02 0.04 0.08 0.13 0.11 0.06 0.07 0.14 0.25 0.45 0.42 0.44 0.61 0.83 1.20 1.47 1.39 1.42 1.24 1.29 1.61 1.97 2.29 2.55 2.56 2.38 2.18 2.04 2.14 2.46 2.88 2.80 2.90
0.00 0.00 0.01 0.01 0.03 0.08 0.06 0.08 0.01 0.01 0.03 0.01 0.01 0.04 0.04 0.03 0.04 0.03 0.01 0.00 0.01 0.04 0.14 0.22 0.27 0.32 0.27 0.40 0.63 0.65 0.71 0.78 0.66 0.63 0.74 0.80 1.24 1.90 2.59 3.06 2.94 3.15 3.44 3.02 2.85 2.63 2.99 3.60 3.97
0.01 0.01 0.05 0.05 0.06 0.05 0.04 0.11 0.03 0.05 0.12 0.08 0.03 0.03 0.06 0.03 0.02 0.02 0.02 0.02 0.01 0.07 0.12 0.16 0.30 0.36 0.29 0.40 0.75 0.86 0.84 0.64 0.56 0.56 0.70 0.82 1.05 1.47 2.02 2.68 3.21 3.51 3.59 3.47 3.39 3.24 3.33 3.41 3.31
0.08 0.05 0.11 0.10 0.13 0.15 0.01 0.07 0.14 0.61 0.58 0.38 0.22 0.12 0.17 0.08 0.06 0.07 0.10 0.10 0.09 0.16 0.17 0.17 0.19 0.32 0.34 0.35 0.61 1.04 1.47 1.73 1.80 1.48 1.07 0.85 1.03 1.31 1.72 2.09 2.44 3.16 3.47 3.42 3.19 3.32 3.24 2.95 3.01
0.11 0.25 0.48 0.52 0.33 0.12 0.06 0.10 0.28 0.52 0.54 0.54 0.45 0.25 0.18 0.12 0.13 0.16 0.17 0.16 0.17 0.20 0.27 0.27 0.19 0.20 0.24 0.28 0.29 0.45 0.76 1.11 1.60 2.26 3.04 2.92 2.38 2.10 2.31 2.54 2.48 2.73 3.14 3.93 3.63 3.65 3.64 3.74 3.10
0.11 0.31 0.43 0.60 0.28 0.14 0.09 0.25 0.70 0.61 0.85 0.57 0.80 0.46 0.33 0.27 0.21 0.20 0.21 0.20 0.19 0.26 0.41 0.39 0.37 0.36 0.23 0.24 0.34 0.49 0.59 0.75 1.09 1.24 1.58 2.41 3.18 2.86 3.17 3.64 3.93 3.36 3.14 3.72 4.11 3.80 3.72 4.28 4.34
0.20 0.19 0.15 0.70 0.43 0.43 0.30 0.81 0.70 0.53 0.81 1.54 0.89 0.51 0.64 0.61 0.36 0.24 0.25 0.32 0.41 0.38 0.47 0.64 0.61 0.70 0.57 0.48 0.45 0.58 0.80 0.81 0.73 0.93 1.57 1.67 1.60 1.79 2.26 2.52 2.69 3.31 3.46 3.24 3.40 3.47 3.20 3.44 4.02
0.16 0.27 0.48 0.94 1.10 0.84 0.41 0.62 0.97 0.97 1.29 1.05 1.23 1.26 0.68 0.77 0.66 0.43 0.37 0.42 0.42 0.56 0.55 0.71 0.90 1.22 1.00 0.88 0.75 0.78 0.87 0.92 1.09 1.32 1.72 2.16 2.48 2.34 1.84 2.00 2.04 1.85 1.84 2.10 2.61 2.84 2.65 2.62 2.82
0.28 0.42 0.47 0.69 0.76 1.52 1.45 1.39 1.54 1.65 1.83 1.79 1.14 1.18 1.34 0.85 1.14 0.89 0.60 0.55 0.79 1.17 0.82 0.95 1.41 2.16 1.80 1.40 1.42 1.58 1.34 1.71 1.90 1.76 2.00 1.91 1.96 2.29 2.18 1.87 1.86 1.87 1.72 1.88 2.07 2.06 2.15 2.45 2.63
0.30 0.31 0.49 1.69 1.25 1.33 2.45 2.46 2.03 1.65 1.31 0.95 0.95 0.88 0.88 1.01 1.11 1.37 1.06 0.84 0.88 0.63 0.71 0.78 1.10 1.44 2.71 2.77 2.99 2.74 3.00 3.41 2.70 2.75 3.00 2.39 2.15 1.95 1.59 1.41 1.41 1.52 1.65 1.84 1.92 1.95 2.01 1.87 1.91